This is the latest recevied weather packets stored in our database for station/object EB2EMZ-15. If no packets are shown the sender has not sent any weather packets the latest 10 day(s).
| Time | Temp. | Humidity | Pressure | Rain* | Wind** | Luminosity | Snow |
|---|---|---|---|---|---|---|---|
| 1778060111 | 17.78° C | 63% | 993.7 hPa | 0 mm | - | - | - |
| 1778059815 | 17.78° C | 62% | 993.7 hPa | 0 mm | - | - | - |
| 1778059511 | 18.33° C | 61% | 993.8 hPa | 0 mm | - | - | - |
| 1778059216 | 18.89° C | 60% | 993.8 hPa | 0 mm | - | - | - |
| 1778058912 | 19.44° C | 59% | 993.8 hPa | 0 mm | - | - | - |
| 1778058616 | 20° C | 58% | 993.7 hPa | 0 mm | - | - | - |
| 1778058312 | 20.56° C | 57% | 993.6 hPa | 0 mm | - | - | - |
| 1778058011 | 21.11° C | 58% | 993.7 hPa | 0 mm | - | - | - |
| 1778057712 | 21.67° C | 59% | 993.4 hPa | 0 mm | - | - | - |
| 1778057414 | 21.11° C | 61% | 993.4 hPa | 0 mm | - | - | - |
| 1778057112 | 20.56° C | 64% | 993.6 hPa | 0 mm | - | - | - |
| 1778056815 | 20° C | 64% | 993.8 hPa | 0 mm | - | - | - |
| 1778056512 | 20° C | 64% | 993.6 hPa | 0 mm | - | - | - |
| 1778056215 | 19.44° C | 66% | 993.7 hPa | 0 mm | - | - | - |
| 1778055912 | 18.89° C | 68% | 993.7 hPa | 0 mm | - | - | - |
| 1778055621 | 18.89° C | 68% | 993.8 hPa | 0 mm | - | - | - |
| 1778055311 | 18.33° C | 70% | 993.7 hPa | 0 mm | - | - | - |
| 1778055016 | 18.33° C | 71% | 993.7 hPa | 0 mm | - | - | - |
| 1778054712 | 17.78° C | 73% | 993.7 hPa | 0 mm | - | - | - |
| 1778054412 | 17.22° C | 73% | 993.7 hPa | 0 mm | - | - | - |
| 1778054112 | 16.67° C | 74% | 993.7 hPa | 0 mm | - | - | - |
| 1778053817 | 16.67° C | 74% | 993.7 hPa | 0 mm | - | - | - |
| 1778053511 | 16.11° C | 76% | 993.7 hPa | 0 mm | - | - | - |
| 1778053215 | 16.11° C | 76% | 993.6 hPa | 0 mm | - | - | - |
| 1778052912 | 15.56° C | 77% | 993.7 hPa | 0 mm | - | - | - |
* Rain latest hour (hover to see other rain measurements)
** Current wind speed in m/s (hover to see current wind gust speed)